GFSFLT1_700_rhum_165.txt.gz
RH
21 20 20 19 18 31 35 32 39 46 60 54 54 50 47 40 34 32 34 35 34 31 27 24 24 27 27 20 13 12 12 11
25 23 22 22 22 36 38 39 46 58 59 62 61 56 58 56 52 48 44 44 44 41 36 29 26 26 28 27 17 12 12 13
27 29 29 25 29 53 54 54 62 64 69 71 69 59 57 53 49 48 55 60 58 54 48 41 32 30 29 29 23 14 12 12
30 32 32 30 30 46 55 61 68 81 91 91 90 85 73 62 56 51 48 49 56 58 57 53 42 32 32 29 26 16 12 12
32 33 32 32 39 55 58 63 72 88 98 100 100 100 92 76 60 50 45 50 54 54 61 62 55 38 34 30 26 23 16 14
36 35 34 33 38 55 63 74 80 90 100 100 99 95 76 56 41 34 31 32 39 47 55 67 62 46 37 34 26 20 18 17
38 38 37 56 62 68 81 88 98 98 100 88 74 64 51 41 38 37 35 34 36 38 44 57 68 53 40 32 25 21 19 20
39 37 40 46 61 76 95 100 100 95 79 60 58 56 44 41 40 40 39 36 36 38 42 59 72 63 47 37 26 22 21 21
45 45 46 52 55 57 61 67 52 42 43 45 39 33 26 20 16 15 23 28 27 28 44 48 73 73 57 45 32 24 24 25
51 52 52 48 49 51 58 72 67 53 58 48 37 25 24 17 9 9 10 14 18 23 46 51 56 76 68 54 42 28 25 26
54 49 43 36 24 17 15 19 25 21 19 20 20 19 16 13 12 12 12 12 12 16 22 43 59 72 82 69 55 32 27 30
48 44 38 33 25 24 16 14 13 15 19 20 13 11 11 11 10 9 8 11 13 14 17 24 30 64 92 90 74 38 30 36
36 36 37 34 28 16 19 23 27 26 30 27 14 15 13 12 11 11 13 15 24 24 34 50 66 91 97 100 96 55 37 44
41 44 42 41 28 37 41 47 50 45 41 29 18 14 11 11 12 21 34 36 42 45 52 53 84 100 100 100 98 76 49 52
42 35 26 22 24 39 47 53 53 52 43 24 21 15 9 12 16 22 37 40 36 52 90 96 96 94 90 98 98 97 93 84
22 35 39 36 34 47 56 56 55 52 47 32 15 11 5 7 15 21 19 24 53 100 99 98 98 94 91 98 97 97 97 96
38 36 35 42 54 64 63 59 54 52 49 32 14 5 4 4 6 7 22 22 40 84 91 96 98 95 100 98 98 99 97 96
32 31 40 54 60 63 61 58 55 47 42 18 12 4 5 6 7 8 19 36 55 68 89 87 98 97 90 90 94 96 96 96
31 32 45 62 67 60 69 64 55 50 23 13 4 5 7 9 8 8 12 44 64 89 76 95 97 96 90 90 95 96 96 97

GFSFLT1_700_rhum_171.txt.gz
RH
32 25 24 26 25 24 21 21 47 55 65 76 68 88 85 98 99 84 71 58 57 55 52 46 42 40 37 36 30 28 27 24
33 34 33 30 30 29 30 25 46 60 73 90 80 71 70 72 97 90 83 80 77 68 66 62 58 53 48 45 36 32 29 25
35 35 34 33 32 32 32 31 47 69 88 92 87 80 85 89 94 96 100 96 93 89 88 77 74 66 61 54 46 37 32 26
32 34 34 35 34 34 36 36 48 69 88 95 92 90 92 96 97 99 98 97 93 87 90 78 61 60 65 66 62 52 39 29
35 38 38 38 37 36 39 46 56 68 86 92 93 99 99 95 98 100 100 97 96 93 80 59 44 37 42 55 62 63 55 35
26 28 36 38 39 40 40 47 60 72 84 81 83 91 94 97 96 99 85 81 77 60 49 49 45 40 39 39 47 61 62 42
34 36 41 43 42 43 47 49 67 84 92 91 95 79 63 78 82 81 77 69 67 53 26 30 33 35 32 33 39 57 67 56
42 44 44 46 49 53 53 53 59 71 73 65 52 39 40 64 73 66 64 54 32 34 32 30 17 15 14 19 29 40 67 68
48 48 50 53 54 50 44 38 32 28 22 18 15 14 12 17 26 32 42 49 41 38 37 34 23 13 11 11 16 37 50 71
54 54 57 56 57 50 37 36 36 32 27 22 17 15 15 15 16 16 14 12 12 12 12 10 10 12 12 13 15 23 44 67
53 54 59 61 63 54 48 44 38 31 27 23 19 17 20 24 18 14 12 11 9 9 10 11 12 15 18 20 21 15 15 34
50 51 58 63 58 48 46 43 30 20 22 21 20 21 26 29 23 17 12 11 8 6 6 9 8 7 8 15 25 37 36 23
57 57 61 63 54 49 37 33 24 22 29 37 36 35 39 36 38 25 22 16 9 8 7 6 9 10 10 15 28 42 52 52
63 64 71 54 53 45 30 20 27 37 52 54 53 52 46 46 46 40 25 15 10 5 4 4 4 5 8 14 28 39 75 81
64 71 69 56 51 42 14 15 26 44 64 65 63 58 56 54 48 45 39 21 14 6 5 6 6 5 6 14 28 61 88 95
70 70 50 16 13 13 15 22 36 41 47 71 72 69 61 62 49 45 40 19 16 8 9 9 9 8 8 12 36 63 94 90
66 33 17 16 16 17 24 33 35 42 59 71 83 84 72 68 57 51 38 19 13 9 10 9 8 8 10 19 42 66 90 97
28 19 18 17 16 16 20 32 46 60 70 80 87 95 74 69 55 58 48 16 7 7 8 8 8 11 17 37 53 66 78 89
20 20 20 19 20 22 21 26 36 56 77 89 87 82 72 66 64 49 17 7 6 7 8 9 10 11 20 47 59 76 80 85

GFSFLT1_700_rhum_174.txt.gz
RH
33 33 28 26 26 27 24 25 22 35 44 45 54 70 78 76 89 86 93 93 99 77 57 49 43 39 40 40 36 35 32 30
34 34 34 34 30 30 31 30 31 30 41 48 56 72 78 92 81 86 91 100 96 90 79 64 61 63 62 63 68 50 40 34
29 32 36 36 34 33 32 34 34 41 48 61 76 93 81 96 90 84 97 100 99 96 92 78 73 70 62 70 68 70 61 48
28 32 34 35 35 34 34 34 39 50 59 67 82 100 92 91 92 90 79 98 100 99 100 98 96 91 83 79 63 46 52 64
21 22 28 35 38 38 37 42 48 54 64 81 90 87 99 100 88 82 69 100 98 96 95 80 98 86 60 49 42 40 45 60
22 24 24 29 29 35 38 40 48 65 82 94 94 89 84 49 45 44 48 84 95 84 88 64 50 51 52 49 42 38 37 46
18 18 21 22 25 24 29 43 53 68 77 80 76 58 44 28 22 22 37 51 58 65 68 55 47 32 28 40 40 37 36 35
20 22 24 23 30 37 39 48 48 47 50 54 51 34 23 19 17 16 19 36 44 46 55 36 38 36 36 33 23 17 17 30
23 26 29 32 45 53 49 42 39 36 31 27 27 25 20 16 15 12 12 14 14 14 16 26 36 34 31 19 14 13 14 15
28 32 35 38 47 57 55 42 40 38 35 30 26 22 20 18 19 20 18 16 15 13 11 10 10 11 12 12 12 11 11 12
33 38 43 45 49 58 58 48 42 38 34 30 25 24 23 25 30 28 21 16 14 12 9 8 10 16 22 20 16 14 16 19
39 44 50 48 51 60 56 48 40 35 31 29 26 22 28 32 36 35 34 28 22 20 16 10 8 9 10 9 7 9 14 22
44 49 54 53 58 62 60 53 48 36 20 19 20 38 46 46 44 45 45 41 37 31 17 13 6 5 4 5 4 4 5 13
51 56 59 60 62 67 60 57 49 49 18 16 24 44 51 52 52 49 48 46 42 37 34 19 11 5 5 7 6 6 6 9
56 58 58 62 68 69 67 23 13 13 13 17 27 40 59 62 62 61 58 59 48 40 41 21 15 7 9 9 7 7 7 8
58 61 62 64 68 67 26 15 15 16 19 32 39 49 73 72 76 74 66 68 63 48 46 23 15 10 10 9 8 8 9 11
62 66 67 71 67 30 17 17 16 18 30 38 46 71 86 88 90 87 82 74 62 55 54 27 12 9 8 8 9 10 11 18
66 70 69 68 37 20 19 17 18 23 36 53 65 78 89 85 90 88 83 66 57 52 22 9 6 7 8 10 11 13 19 32
72 71 58 31 22 20 20 20 21 25 35 56 81 94 97 92 85 76 55 49 37 19 9 6 7 9 12 12 14 20 31 48

GFSFLT1_700_rhum_177.txt.gz
RH
33 33 31 25 27 27 22 25 27 24 26 35 51 55 56 60 75 68 76 88 88 93 92 99 94 73 51 41 43 48 47 43
30 33 33 34 29 28 29 31 32 33 34 37 49 47 59 61 77 74 83 97 88 77 94 88 86 80 75 60 79 76 75 70
26 26 28 30 34 34 34 34 34 37 42 46 48 52 62 79 84 91 95 66 77 86 99 99 99 99 97 87 70 74 68 78
24 27 30 32 34 34 33 33 34 36 43 52 58 69 79 91 98 78 51 59 61 84 98 95 100 100 99 97 82 82 91 92
25 27 31 33 33 32 31 32 36 46 57 68 78 85 88 92 58 45 50 50 46 71 96 96 99 89 85 88 94 80 80 70
18 16 14 12 11 12 16 30 37 49 61 70 84 86 76 50 35 27 24 20 30 53 69 73 79 59 55 56 68 56 54 52
17 19 20 16 14 16 17 17 28 46 56 50 45 39 44 38 27 20 20 30 35 38 44 56 62 70 63 53 41 26 20 24
16 16 16 18 17 17 24 28 36 37 30 30 33 41 37 27 24 20 16 15 14 14 16 20 19 29 46 43 39 36 35 32
18 18 20 24 22 29 37 47 30 26 30 32 31 29 29 25 26 23 17 16 15 14 15 15 14 13 12 11 11 12 13 13
20 21 27 34 26 36 47 53 45 37 38 38 36 35 36 33 29 24 20 19 19 19 18 16 13 10 7 6 11 14 16 18
24 25 30 39 38 34 44 56 56 52 46 42 43 42 38 32 26 25 24 26 26 24 22 19 16 14 10 6 8 10 8 7
29 30 32 42 47 40 37 46 59 63 52 47 47 38 23 22 26 31 34 37 39 40 35 32 30 19 13 7 6 5 4 4
35 35 38 44 49 48 46 51 60 62 57 50 48 36 27 37 47 48 46 47 46 46 44 44 38 34 32 17 7 4 6 6
45 40 43 48 53 55 54 56 65 65 65 22 14 15 17 30 44 53 56 55 56 56 58 59 54 43 38 30 16 5 8 8
56 55 56 54 57 57 59 63 66 68 31 14 14 15 15 22 43 60 63 64 68 68 63 66 63 47 45 41 18 8 9 8
52 61 60 60 63 58 59 67 68 49 18 17 16 16 29 41 51 67 74 75 82 82 78 77 76 59 49 42 17 11 10 8
54 60 60 63 61 60 60 65 70 33 18 17 16 25 36 45 60 81 88 94 98 95 92 62 57 52 37 11 9 7 8 10
57 60 64 61 60 61 65 70 44 21 20 18 18 29 53 62 75 92 96 95 92 80 59 48 41 31 10 6 7 9 12 12
65 67 66 61 67 70 66 39 22 22 21 21 26 44 67 81 95 96 88 75 57 44 28 24 11 8 8 10 12 15 16 18

GFSFLT1_700_rhum_180.txt.gz
RH
28 30 33 29 27 29 23 25 25 27 27 25 24 30 46 52 59 59 72 74 70 71 72 66 77 85 96 60 54 51 49 55
22 28 33 34 32 26 25 28 29 31 32 34 37 41 47 53 65 69 78 78 68 42 51 59 88 97 98 91 71 70 67 69
28 27 28 32 34 34 35 35 35 34 34 36 39 45 54 64 69 77 88 69 44 42 46 67 97 98 98 97 90 92 98 79
25 20 22 25 29 33 33 33 33 33 34 36 45 55 64 70 74 79 73 41 35 36 46 68 79 88 99 98 99 98 100 94
17 24 26 29 31 32 32 26 20 25 34 43 57 61 67 82 81 41 38 32 27 24 22 21 27 65 74 73 60 60 83 90
17 21 20 21 18 11 9 8 11 24 36 52 62 65 68 46 33 35 35 25 23 22 21 20 17 28 48 44 50 55 49 53
18 16 14 13 10 10 10 10 10 12 24 46 54 34 19 20 30 35 28 25 23 23 19 14 13 18 26 30 39 45 44 41
15 13 12 12 11 11 10 10 13 18 27 37 24 22 29 30 31 30 31 33 34 29 18 15 14 14 14 14 13 12 12 12
16 14 14 13 13 13 12 14 15 21 27 22 30 35 33 32 33 36 39 37 34 30 19 18 17 18 16 14 12 11 9 7
17 14 16 16 16 16 15 15 19 38 43 44 40 38 37 39 41 37 29 26 25 22 22 24 23 21 20 21 19 14 9 7
18 18 20 21 20 19 21 21 26 49 50 54 45 43 43 38 30 23 21 17 22 23 30 31 32 32 30 29 26 20 10 6
20 23 26 23 22 22 28 32 39 42 54 62 59 49 50 43 38 18 19 23 32 40 40 41 43 45 46 44 39 35 32 21
25 29 30 27 27 26 36 45 47 46 52 56 61 63 35 14 15 21 37 47 50 52 52 52 54 57 59 59 53 45 38 33
53 36 36 38 33 36 37 45 51 45 48 57 61 64 19 14 15 25 36 57 56 58 59 62 64 66 66 66 59 55 46 43
59 50 54 54 48 52 56 59 57 54 58 63 67 51 18 17 16 18 33 62 67 66 68 70 76 80 82 82 74 68 53 42
56 59 61 61 59 63 68 60 52 56 59 68 64 39 19 17 17 28 45 55 72 81 83 87 90 92 80 54 52 52 47 24
51 55 60 61 59 62 61 61 53 58 63 66 64 30 19 19 21 33 45 64 85 93 97 98 87 70 52 42 37 31 21 9
53 51 54 61 64 62 62 60 59 65 64 64 42 21 20 20 32 54 70 84 98 98 91 67 47 42 36 25 14 8 8 10
61 53 52 56 60 61 61 63 68 57 54 56 23 23 24 31 53 60 73 83 71 54 47 45 42 26 22 11 10 11 12 17

GFSFLT1_700_rhum_183.txt.gz
RH
36 35 30 32 33 38 30 28 30 30 25 25 26 25 28 33 44 49 62 63 69 76 54 40 38 52 75 87 71 59 61 58
30 29 29 30 31 30 29 31 31 29 28 30 32 34 36 42 51 56 60 62 72 62 37 30 30 46 72 97 95 93 85 80
27 33 30 30 32 36 37 35 34 32 33 34 35 36 40 46 54 55 59 64 61 52 32 26 24 59 66 90 98 94 99 90
30 36 27 26 29 32 33 33 33 33 34 34 34 35 42 51 56 61 69 56 32 32 26 22 24 27 60 83 89 91 82 79
31 35 20 20 22 27 30 32 30 24 17 17 23 35 46 56 62 74 54 27 24 28 26 24 24 22 24 32 40 52 55 55
36 31 16 17 21 22 21 13 7 8 9 13 24 33 52 55 61 34 23 30 28 28 25 25 24 19 15 18 34 46 41 45
33 20 16 16 13 11 8 9 9 9 10 12 19 39 53 41 19 25 29 29 28 29 31 32 27 21 16 14 13 12 13 13
32 18 14 13 10 9 10 10 10 10 12 14 20 36 27 25 31 30 30 31 33 37 36 32 26 18 16 16 15 15 15 14
26 18 13 12 11 11 12 13 14 14 15 23 27 23 28 37 36 34 37 39 40 35 20 17 15 17 18 17 19 21 21 20
26 19 13 12 13 14 16 16 16 17 23 31 30 39 36 34 38 41 42 40 29 13 14 16 20 23 25 29 29 27 28 29
33 23 12 14 17 19 20 19 18 19 22 40 47 50 43 41 44 47 44 27 15 14 16 21 27 33 34 37 41 40 36 37
36 26 14 18 21 23 23 23 23 25 25 36 51 59 59 49 52 34 18 17 15 16 21 31 46 47 48 51 57 58 58 58
39 27 19 20 26 27 28 27 27 30 33 36 49 54 56 60 62 27 16 16 20 38 49 52 55 58 60 63 68 72 75 75
44 37 26 25 30 31 32 32 37 42 43 48 51 57 61 62 59 22 17 16 25 44 58 61 61 63 66 70 76 86 86 67
35 40 30 26 32 34 37 39 43 56 57 56 57 58 63 68 63 34 19 18 22 33 54 76 75 75 77 86 97 91 66 49
46 44 39 39 44 44 42 50 48 50 51 56 65 60 61 69 72 34 19 20 29 51 78 86 90 90 94 97 81 57 47 44
51 53 55 51 50 56 65 62 58 68 59 60 65 63 62 70 55 24 25 32 46 73 93 97 100 94 90 64 49 44 30 20
59 64 57 58 62 74 70 60 60 63 63 63 64 77 69 50 60 41 45 66 72 80 88 98 91 68 50 44 39 26 22 12
62 63 64 59 62 69 74 60 61 63 64 72 77 79 71 74 63 63 64 60 51 54 60 55 52 50 48 47 33 23 15 13